Regional Weather Roundup
Issued by NWS

Home | Current Version | Previous Version | Graphics & Text | Print | Product List | Glossary On
Versions: 1 2 3 4 5 6 7 8 9 10 11 12 13 14 15 16 17 18 19 20 21 22 23 24 25 26 27 28 29 30 31 32 33 34 35 36 37 38 39 40 41 42 43 44 45 46 47 48 49 50
000
ASUS45 KTFX 181619
RWRMT
MONTANA HOURLY WEATHER ROUNDUP
NATIONAL WEATHER SERVICE GREAT FALLS MT
1019 AM MDT THU SEP 18 2014

NOTE: "FAIR" INDICATES FEW OR NO CLOUDS BELOW 12000 FEET WITH NO
SIGNIFICANT WEATHER AND/OR OBSTRUCTIONS TO VISIBILITY.

* THESE STATIONS ARE NOT UNDER NWS QUALITY CONTROL. THEY DO NOT
   REPORT WEATHER SUCH AS PRECIPITATION OR FOG.

MTZ001>007-043-181700-
WEST OF THE DIVIDE
CITY           SKY/WX    TMP DP  RH WIND       PRES   REMARKS
KALISPELL      SMOKE     52  48  86 CALM      29.74R
MISSOULA       LGT RAIN  55  48  77 W10       29.86R
BUTTE          CLOUDY    63  48  58 N7        29.93F
MULLAN PASS    CLOUDY    59  41  51 VRB3      29.89R
* ESSEX        N/A       51  44  77 SE2G9      N/A
* LINCOLN      N/A       47  40  77 SW5G10     N/A
* LOOKOUT PASS N/A       64  43  47 SE4G9      N/A
* POLSON       N/A       60  49  67 S2G7       N/A
* RONAN APT    CLOUDY    64  52  65 SE7        N/A
* SEELEY LAKE  N/A       53  43  69 NE1G8      N/A
* THOMP F APT  PTSUNNY   58  50  75 N2G7       N/A
$$

MTZ008-052>055-181700-
SOUTHWEST MONTANA
CITY           SKY/WX    TMP DP  RH WIND       PRES   REMARKS
BOZEMAN        LGT RAIN  55  54  96 E10       29.90F
DILLON         CLOUDY    57  50  78 CALM      29.94R
W YELLOWSTONE  CLOUDY    50  48  93 SW3       30.06F
* THREE FORKS  CLOUDY    55  36  49 N/A        N/A
* BOULDER HILL N/A       54  46  74 S17        N/A
* MONIDA PASS  N/A       60  49  67 NE6        N/A
* RAYNOLDS PAS N/A       56  44  64 SW5        N/A
* WHITEHALL    N/A       54  50  86 N8         N/A
* WISE RIVER   N/A       51  45  80 W3         N/A
$$

MTZ009>010-012-014-046-048-049-054-181700-
EAST SLOPES AND CENTRAL MONTANA
CITY           SKY/WX    TMP DP  RH WIND       PRES   REMARKS
CUT BANK       CLOUDY    63  43  48 SW5       29.72R
GREAT FALLS    CLOUDY    72  43  35 S17       29.74R
HELENA         CLOUDY    57  46  67 CALM      29.83F
* CONRAD       CLOUDY    61  50  67 N/A        N/A
* EAST GLACIER N/A       65  39  39 W14G19     N/A
* PENDROY      N/A       70  44  39 W14        N/A
* ROGERS PASS  N/A       66  38  36 E8G15      N/A
* SAINT MARY   N/A       47  44  89 S3         N/A
* SWEET GRASS  N/A       68  37  32 SW13       N/A
* WHITE SULPH  N/A       58  50  75 S11G19     N/A
$$

MTZ011-013-016-021-035-040-045-047-050-051-181700-
NORTH CENTRAL MONTANA
CITY           SKY/WX    TMP DP  RH WIND       PRES   REMARKS
HAVRE          CLOUDY    61  52  72 SW7       29.66S
LEWISTOWN      CLOUDY    73  45  37 SW25G35   29.79R
* CHINOOK      CLOUDY    55  52  90 CALM      29.66S
* CHESTER      N/A       56  50  80 N/A        N/A
* DENTON       N/A       65  48  54 S8         N/A
* GEYSER       N/A       73  45  37 S22G27     N/A
* JUDITH GAP   N/A       65  50  58 SW27G34    N/A
* LOMA         N/A       59  53  81 N/A        N/A
$$

MTZ017>020-022>027-061-062-181700-
NORTHEAST MONTANA
CITY           SKY/WX    TMP DP  RH WIND       PRES   REMARKS
GLASGOW        PTCLDY    66  54  65 E6        29.65F
GLENDIVE       PTSUNNY   68  55  63 S14       29.74F
JORDAN         PTSUNNY   72  54  53 SW6       29.69S
SIDNEY         PTCLDY    66  55  68 S9        29.72F
WOLF POINT     PTSUNNY   64  54  70 CALM      29.67S
* BEAVER HILL  N/A       72  53  51 S11G17     N/A
* CIRCLE       N/A       73  56  55 SW11       N/A
* LINDSAY DVD  N/A       68  54  61 SE7        N/A
* NAVAJO       N/A       64  52  65 S7G14      N/A
* SACO         N/A       62  53  73 E1         N/A
$$

MTZ028>042-056>058-181700-
SOUTHCENTRAL AND SOUTHEAST MONTANA
CITY           SKY/WX    TMP DP  RH WIND       PRES   REMARKS
BAKER          PTCLDY    70  55  59 SE9       29.78F
BILLINGS       LGT RAIN  70  45  41 W18G30    29.86R
LIVINGSTON     LGT RAIN  61  54  78 NW12      29.96S
MILES CITY     PTSUNNY  N/A N/A N/A N/A       29.75R
* LAUREL APT   CLOUDY    70  50  49 SW9        N/A
* ROUNDUP APT  CLOUDY    57  48  72 S15G21     N/A
* HYSHAM       N/A       68  45  44 W6         N/A
* LAME DEER    N/A       77  48  36 S5         N/A
* REED POINT   N/A       57  54  90 E4         N/A
* ROSCOE HILL  N/A       70  37  30 S13G20     N/A
$$

REGIONAL REPORTS...DAKOTAS
CITY           SKY/WX    TMP DP  RH WIND       PRES   REMARKS
WILLISTON      PTCLDY    66  52  61 S9        29.71F
DICKINSON      SUNNY     66  54  65 S18       29.78F
BEACH          N/A       68  57  68 S14       29.76F
CROSBY         SUNNY     66  52  61 S14G24    29.68F
TIOGA          SUNNY     64  54  70 S15G22    29.75F
WATFORD CITY   SUNNY     68  52  57 S12G21    29.71F
BISMARCK       SUNNY     68  55  63 SE15      29.85F
GRAND FORKS    FOG       52  52 100 S15       29.97S VSB 3
FARGO          CLOUDY    57  52  83 SE16      29.98F
BUFFALO SD     SUNNY     64  54  70 S9        29.77S
RAPID CITY     SUNNY     66  55  68 SE3       29.86S
$$

REGIONAL REPORTS...WYOMING/IDAHO/WASHINGTON
CITY           SKY/WX    TMP DP  RH WIND       PRES   REMARKS
GILLETTE       PTCLDY    79  46  31 S14       29.88F
SHERIDAN       PTSUNNY   66  52  61 CALM      29.84R
CODY           CLOUDY   N/A N/A N/A N/A        N/A
YELLOWSTONE LA CLOUDY    54  48  80 CALM      30.17F
SALMON         CLOUDY    61  50  67 NW5       29.89R
MULLAN PASS    CLOUDY    59  41  51 VRB3      29.89S
SAND POINT     PTSUNNY   61  54  78 S6        29.72R
SPOKANE        PTSUNNY   63  43  48 S12       29.73R
$$

REGIONAL REPORTS...ALBERTA
CITY           SKY/WX    TMP DP  RH WIND       PRES   REMARKS
CALGARY        PTSUNNY   63  46  54 N13       29.63R
LETHBRIDGE     PTSUNNY   63  48  58 SW10      29.64R
MEDICINE HAT   PTSUNNY   66  54  65 SW8       29.60R
EDMONTON       LGT RAIN  59  50  72 NW6       29.61R
WATERTON GATE  N/A       59  48  67 NE2        N/A
CARDSTON       N/A       63  46  54 SW7        N/A
$$

REGIONAL REPORTS...SASKATCHEWAN
CITY           SKY/WX    TMP DP  RH WIND       PRES   REMARKS
SWIFT CURRENT  SUNNY     68  50  53 SW14      29.58F
MOOSE JAW      PTSUNNY   66  55  68 SE7       29.59F
REGINA         PTSUNNY   59  50  72 S16G23    29.64F
VAL MARIE      N/A       61  52  72 S9         N/A
ASSINIBOIA     N/A       63  50  63 S7         N/A
CORONACH       N/A       63  52  68 SE8        N/A

$$




USA.gov is the U.S. government's official web portal to all federal, state and local government web resources and services.